Regional Weather Roundup
Issued by NWS Green Bay, WI

Home | Current Version | Previous Version | Graphics & Text | Print | Product List | Glossary Off
Versions: 1 2 3 4 5 6 7 8 9 10 11 12 13 14 15 16 17 18 19 20 21 22 23 24 25 26 27 28 29 30 31 32 33 34 35 36 37 38 39 40 41 42 43 44 45 46 47 48 49 50

461
ASUS43 KGRB 032111
RWRGRB

NORTH-CENTRAL AND NORTHEAST WISCONSIN REGIONAL WEATHER ROUNDUP
NATIONAL WEATHER SERVICE GREEN BAY WI
400 PM CDT TUE MAY 03 2016

WIZ005-009-010>012-018-019-032200-
NORTH CENTRAL WISCONSIN

CITY           SKY/WX    TMP DP  RH WIND       PRES   REMARKS
IRONWOOD         N/A     55  46  71 W10       29.64F
MANITOWISH WTR LGT RAIN  47  47 100 CALM      29.70S
ARBOR VITAE    LGT RAIN  52  47  85 NW3       29.71S
EAGLE RIVER    LGT RAIN  50  44  79 W5        29.70F
LAND O LAKES   RAIN      48  46  90 W5        29.72R
RHINELANDER    LGT RAIN  52  43  71 NW8       29.72R
PHILLIPS       DRIZZLE   56  41  55 W6        29.68F
ANTIGO         LGT RAIN  57  38  49 W16G24    29.69S
TOMAHAWK       LGT RAIN  54  41  61 W17       29.71R
MERRILL        CLOUDY    61  36  39 NW21G30   29.69S
$$

WIZ013-073-032200-
NORTHEAST WISCONSIN

CITY           SKY/WX    TMP DP  RH WIND       PRES   REMARKS
IRON MOUNTAIN  LGT RAIN  53  44  71 NW10      29.68R
MARINETTE      NOT AVBL
OCONTO         CLOUDY    66  33  30 W10G22    29.64F
$$

WIZ017-030-035>037-045-032200-
CENTRAL WISCONSIN

CITY           SKY/WX    TMP DP  RH WIND       PRES   REMARKS
MEDFORD        LGT RAIN  58  38  46 W12G20    29.69F
WAUSAU         CLOUDY    66  33  29 W15G28    29.66F
MOSINEE        CLOUDY    63  30  29 W20       29.69F
MARSHFIELD     CLOUDY    66  32  28 W17G25    29.68F
WISC RAPIDS    CLOUDY    67  29  24 W14G28    29.71F
STEVENS POINT  CLOUDY    64  31  29 W14G24    29.69F
WAUPACA        CLOUDY    69  29  22 SW17G24   29.69F
SHAWANO        CLOUDY    68  32  25 W7G21     29.67F
CLINTONVILLE   CLOUDY    66  30  26 W12       29.67F
WAUTOMA        CLOUDY    68  34  28 SW21G26   29.70F
$$

WIZ038-039-048-051-032200-
FOX VALLEY

CITY           SKY/WX    TMP DP  RH WIND       PRES   REMARKS
NWS GREEN BAY  PTSUNNY   68  36  30 W17       29.67F
APPLETON       PTSUNNY   66  30  26 SW14G22   29.69F
OSHKOSH        CLOUDY    67  34  29 SW13G21   29.70F
FOND DU LAC    CLOUDY    68  34  28 SW14      29.72F
$$

WIZ022-050-052-032200-
EAST CENTRAL WISCONSIN

CITY           SKY/WX    TMP DP  RH WIND       PRES   REMARKS
EPHRAIM        CLOUDY    63  35  35 SW7       29.65F
STURGEON BAY   CLOUDY    64  34  32 SW12G24   29.69S
MANITOWOC      CLOUDY    68  33  27 MISG      29.69F
SHEBOYGAN      CLOUDY    67  35  30 W18G24    29.72F
$$

LMZ563-521-522-541>543-032200-
LAKESHORE

STATION/POSITION TIME  TEMP    WIND        PRES    VSBY  WAVE
                       AIR SEA DIR/SP/G                  HT/PER
                 (UTC) (F)     (DEG/KT/KT) (MB)    (MI)  (FT/S)
SHEBOYGAN LKSHOR 2100   66     240/ 17/ 21 1006.5F
KEWAUNEE LKSHORE 2000   68     250/ 12/ 21 1005.0F
ALGOMA MARINA    2015          260/ 15/ 20   N/A
NORTHPORT PIER   2000   65     230/  7/ 17 1004.4F
N MID LAKE BUOY  2050   43 39  200/ 12/ 17 1004.7R         3/ 5
CHAMBERS ISLAND  2000   63     240/  7/ 14 1004.7F
MENOMINEE LKSHOR 2000   66     240/ 16/ 20 1003.6F
$$




USA.gov is the U.S. government's official web portal to all federal, state and local government web resources and services.